This is the latest recevied weather packets stored in our database for station/object WA6OOO. If no packets are shown the sender has not sent any weather packets the latest 10 day(s).
| Time | Temp. | Humidity | Pressure | Rain* | Wind** | Luminosity | Snow |
|---|---|---|---|---|---|---|---|
| 1777518173 | 15° C | 88% | 1017.3 hPa | 0 mm | - | 0 W/m² | - |
| 1777517870 | 15° C | 88% | 1017.4 hPa | 0 mm | - | 0 W/m² | - |
| 1777517565 | 15° C | 86% | 1017.4 hPa | 0 mm | - | 0 W/m² | - |
| 1777517264 | 15° C | 86% | 1017.2 hPa | 0 mm | - | 1 W/m² | - |
| 1777516963 | 15° C | 85% | 1017.2 hPa | 0 mm | - | 2 W/m² | - |
| 1777516659 | 15.56° C | 83% | 1017.3 hPa | 0 mm | - | 4 W/m² | - |
| 1777516355 | 15.56° C | 80% | 1017.2 hPa | 0 mm | - | 7 W/m² | - |
| 1777516051 | 15.56° C | 78% | 1017 hPa | 0 mm | - | 10 W/m² | - |
| 1777515748 | 16.11° C | 77% | 1017 hPa | 0 mm | - | 13 W/m² | - |
| 1777515444 | 16.11° C | 76% | 1017 hPa | 0 mm | - | 16 W/m² | - |
| 1777515141 | 16.67° C | 73% | 1016.8 hPa | 0 mm | - | 20 W/m² | - |
| 1777514838 | 17.22° C | 72% | 1016.8 hPa | 0 mm | - | 24 W/m² | - |
| 1777514535 | 17.78° C | 70% | 1016.9 hPa | 0 mm | - | 27 W/m² | - |
| 1777514233 | 18.33° C | 63% | 1016.9 hPa | 0 mm | - | 30 W/m² | - |
| 1777513928 | 18.33° C | 65% | 1016.8 hPa | 0 mm | - | 33 W/m² | - |
| 1777513626 | 18.89° C | 61% | 1017 hPa | 0 mm | - | 36 W/m² | - |
| 1777513322 | 19.44° C | 52% | 1016.8 hPa | 0 mm | - | 51 W/m² | - |
| 1777513018 | 19.44° C | 52% | 1017 hPa | 0 mm | - | 68 W/m² | - |
| 1777512715 | 19.44° C | 52% | 1017.1 hPa | 0 mm | - | 77 W/m² | - |
| 1777512412 | 19.44° C | 53% | 1017.1 hPa | 0 mm | - | 87 W/m² | - |
| 1777512109 | 20° C | 58% | 1017 hPa | 0 mm | - | 96 W/m² | - |
| 1777511807 | 19.44° C | 61% | 1017 hPa | 0 mm | - | 106 W/m² | - |
| 1777511503 | 18.89° C | 62% | 1017 hPa | 0 mm | - | 117 W/m² | - |
| 1777511200 | 19.44° C | 61% | 1017.3 hPa | 0 mm | - | 129 W/m² | - |
| 1777510896 | 19.44° C | 63% | 1017.3 hPa | 0 mm | - | 141 W/m² | - |
* Rain latest hour (hover to see other rain measurements)
** Current wind speed in m/s (hover to see current wind gust speed)